Location: Newark
(29.9790°N, 31.1340°E)
Time: 01:13:25
(UTC+00:00)

Transit 2A Rocket - Pass Details

Date: 24 January 2020
Orbit: 591 x 912 km, 66.7° (Epoch: 27 February)

Event Time Altitude Azimuth Distance (km) Brightness Sun altitude
Rises 03:05:30 0° 213° (SSW) 2,888 - -22.5°
Reaches altitude 10° 03:07:49 10° 217° (SW) 1,956 - -22.1°
Maximum altitude 03:12:06 56° 296° (WNW) 706 - -21.1°
Exits shadow 03:12:27 54° 318° (NW) 721 4.5 -21.1°
Drops below altitude 10° 03:16:18 10° 15° (NNE) 1,921 7.1 -20.2°
Sets 03:18:35 0° 20° (NNE) 2,832 8.1 -19.8°
